Weather History for KTUS - October, 2011

Change the Weather History Date:

Thursday, October 13, 2011

  Actual Average Record
Temperature  
Mean Temperature 79 °F 72 °F  
Max Temperature 97 °F 86 °F 99 °F (1998)
Min Temperature 60 °F 58 °F 38 °F (2008)
Degree Days  
Heating Degree Days 0 0  
Month to date heating degree days 10 0  
Since 1 July heating degree days 10 0  
Cooling Degree Days 14 7  
Month to date cooling degree days 103 123  
Year to date cooling degree days 3275 3030  
Growing Degree Days 28 (Base 50)    
Moisture  
Dew Point 32 °F    
Average Humidity 22    
Maximum Humidity 36    
Minimum Humidity 8    
Precipitation  
Precipitation 0.00 in 0.03 in 0.55 in (1916)
Month to date precipitation 0.06 0.45  
Year to date precipitation 9.23 9.65  
Snow  
Snow 0.00 in - - ()
Month to date snowfall 0.0  
Snow Depth 0.00 in    
Sea Level Pressure  
Sea Level Pressure 29.83 in    
Wind  
Wind Speed 5 mph (SE)    
Max Wind Speed 14 mph    
Max Gust Speed 17 mph    
Visibility 10 miles    
Events      
T = Trace of Precipitation, MM = Missing Value Source: NWS Daily Summary

Daily Weather History Graph

Daily Weather History Graph

Search for Another Location

Airport or City:

Trip Planner

Search our weather history database for the weather conditions in past years. The results will help you decide how hot, cold, wet, or windy it might be!

Date:

Astronomy

Oct. 13, 2011 Rise Set
Actual Time 6:25 AM MST 5:53 PM MST
Civil Twilight 6:01 AM MST 6:18 PM MST
Nautical Twilight 5:32 AM MST 6:46 PM MST
Astronomical Twilight 5:04 AM MST 7:15 PM MST
Moon 6:41 PM MST (10/13) 7:51 AM MST (10/13)
Length of Visible Light 12h 17m
Length of Day
11h 28m
Full, 97% of the Moon is Illuminated
Oct 13
Full
Oct 19
Last Quarter
Oct 26
New
Nov 2
First Quarter
Nov 10
Full

Hourly Weather History & Observations

Time (MST) Temp. Dew Point Humidity Pressure Visibility Wind Dir Wind Speed Gust Speed Precip Events Conditions
12:53 AM 64.0 °F 34.0 °F 33% 29.84 in 10.0 mi ESE 6.9 mph - N/A   Clear
1:53 AM 61.0 °F 34.0 °F 36% 29.86 in 10.0 mi SE 8.1 mph - N/A   Clear
2:53 AM 61.0 °F 34.0 °F 36% 29.86 in 10.0 mi SE 4.6 mph - N/A   Clear
3:53 AM 60.1 °F 34.0 °F 38% 29.86 in 10.0 mi SE 3.5 mph - N/A   Clear
4:53 AM 61.0 °F 34.0 °F 36% 29.86 in 10.0 mi SE 8.1 mph - N/A   Clear
5:53 AM 61.0 °F 34.0 °F 36% 29.86 in 10.0 mi SE 10.4 mph - N/A   Clear
6:53 AM 60.1 °F 34.0 °F 38% 29.88 in 10.0 mi SE 9.2 mph - N/A   Clear
7:53 AM 66.9 °F 33.1 °F 28% 29.89 in 10.0 mi SSE 10.4 mph - N/A   Clear
8:53 AM 75.0 °F 34.0 °F 22% 29.89 in 10.0 mi SSE 6.9 mph - N/A   Clear
9:53 AM 82.0 °F 33.1 °F 17% 29.88 in 10.0 mi Variable 4.6 mph - N/A   Clear
10:53 AM 87.1 °F 30.9 °F 13% 29.86 in 10.0 mi ESE 4.6 mph - N/A   Clear
11:53 AM 91.4 °F 30.2 °F 11% 29.96 in 10.0 mi Calm Calm - N/A   Clear
12:53 PM 93.0 °F 27.0 °F 9% 29.80 in 10.0 mi Calm Calm - N/A   Clear
1:53 PM 95.0 °F 28.0 °F 9% 29.77 in 9.0 mi Calm Calm - N/A   Clear
2:53 PM 96.1 °F 27.0 °F 9% 29.75 in 10.0 mi Calm Calm - N/A   Clear
3:53 PM 97.0 °F 27.0 °F 8% 29.74 in 10.0 mi Variable 3.5 mph - N/A   Clear
4:53 PM 95.0 °F 28.9 °F 10% 29.74 in 10.0 mi North 8.1 mph - N/A   Clear
5:53 PM 90.0 °F 30.0 °F 12% 29.75 in 10.0 mi NNW 6.9 mph - N/A   Clear
6:53 PM 84.0 °F 30.9 °F 15% 29.78 in 10.0 mi NNW 5.8 mph - N/A   Clear
7:53 PM 80.1 °F 34.0 °F 19% 29.79 in 10.0 mi WSW 3.5 mph - N/A   Clear
8:53 PM 77.0 °F 33.1 °F 20% 29.81 in 10.0 mi Variable 4.6 mph - N/A   Clear
9:53 PM 72.0 °F 35.1 °F 26% 29.82 in 10.0 mi South 5.8 mph - N/A   Clear
10:53 PM 68.0 °F 36.0 °F 31% 29.83 in 10.0 mi SSE 4.6 mph - N/A   Clear
11:53 PM 68.0 °F 35.1 °F 30% 29.82 in 10.0 mi SE 6.9 mph - N/A   Clear